Retour au catalogue

STARLINK-34989

ActifCommunicationsSSO
NORAD 65251·PAYLOAD·🇺🇸 United States

Lancé Aug 18, 2025 depuis Vandenberg Space Force Base

Loading…

Prochains Passages (prochaines 24 heures)

TLE

FraisSource: CelesTrak SupGP

Époque: Sep 14, 2026, 22:37 UTC

1 65251C 25179S   26257.94284722  .00032547  00000+0  10107-2 0  2571
2 65251  97.2832 297.3556 0001470  87.2680 196.6251 15.33412218    13

Suivez STARLINK-34989 en temps réel avec AllMySat

Download on the App Store